Weather History for KFEW - December, 2013

Change the Weather History Date:

Monday, December 9, 2013

  Actual Average (KCYS) Record (KCYS)
Temperature  
Mean Temperature 2 °F 28 °F  
Max Temperature 16 °F 38 °F 67 °F (1939)
Min Temperature -13 °F 17 °F -28 °F (1919)
Degree Days  
Heating Degree Days 64 37  
Month to date heating degree days 330  
Since 1 July heating degree days 2078  
Cooling Degree Days 0 0  
Month to date cooling degree days 0  
Year to date cooling degree days 348  
Moisture  
Dew Point -2 °F    
Average Humidity 64    
Maximum Humidity 85    
Minimum Humidity 45    
Precipitation  
Precipitation 0.00 in 0.02 in 0.28 in (1917)
Month to date precipitation 0.16  
Year to date precipitation 15.61  
Snow  
Snow 0.00 in 0.30 in 5.20 in (1985)
Month to date snowfall 2.6  
Since 1 July snowfall 16.9  
Snow Depth 6.00 in    
Sea Level Pressure  
Sea Level Pressure 30.08 in    
Wind  
Wind Speed 19 mph (WNW)    
Max Wind Speed 46 mph    
Max Gust Speed 56 mph    
Visibility 6 miles    
Events Snow    
T = Trace of Precipitation, MM = Missing Value Source: NWS Daily Summary

Daily Weather History Graph

Daily Weather History Graph

Search for Another Location

Airport or City:

Trip Planner

Search our weather history database for the weather conditions in past years. The results will help you decide how hot, cold, wet, or windy it might be!

Date:

Astronomy

Dec. 09, 2013 Rise Set
Actual Time 7:13 AM MST 4:30 PM MST
Civil Twilight 6:42 AM MST 5:01 PM MST
Nautical Twilight 6:07 AM MST 5:36 PM MST
Astronomical Twilight 5:34 AM MST 6:09 PM MST
Moon 12:04 PM MST (12/9) No Moon Set
Length of Visible Light 10h 19m
Length of Day
9h 17m
First Quarter, 52% of the Moon is Illuminated
Dec 9
First Quarter
Dec 17
Full
Dec 25
Last Quarter
Jan 1
New
Jan 7
First Quarter

Hourly Weather History & Observations

Time (MST) Temp. Windchill Dew Point Humidity Pressure Visibility Wind Dir Wind Speed Gust Speed Precip Events Conditions
12:00 AM -2.2 °F - -7.6 °F 78% 29.94 in 12.0 mi Variable 1.2 mph - N/A   Mostly Cloudy
12:56 AM -8.3 °F - -12.3 °F 83% 30.25 in 12.0 mi Variable 1.2 mph - N/A   Mostly Cloudy
1:33 AM -13.0 °F -30.0 °F -16.6 °F 84% 29.93 in 7.0 mi West 8.1 mph - N/A Snow Light Snow
1:56 AM -9.6 °F -21.1 °F -13.0 °F 85% 30.27 in 5.0 mi NW 4.6 mph - N/A Snow Light Snow
2:09 AM -9.4 °F - -14.8 °F 77% 29.93 in 12.0 mi Variable 1.2 mph - N/A   Mostly Cloudy
2:56 AM -10.8 °F -26.0 °F -14.3 °F 85% 30.29 in 12.0 mi West 6.9 mph - N/A   Partly Cloudy
3:56 AM -6.3 °F -19.1 °F -11.0 °F 80% 30.27 in 12.0 mi NW 5.8 mph - N/A   Clear
4:56 AM -4.9 °F -21.3 °F -12.1 °F 71% 30.33 in 12.0 mi SSW 9.2 mph - N/A   Clear
5:56 AM -5.1 °F -25.1 °F -9.0 °F 83% 30.33 in 12.0 mi WSW 13.8 mph - N/A   Clear
6:56 AM -5.3 °F -25.4 °F -10.5 °F 78% 30.33 in 12.0 mi WSW 13.8 mph - N/A   Clear
7:56 AM 1.8 °F -20.5 °F -9.6 °F 59% 30.29 in 12.0 mi West 21.9 mph 25.3 mph N/A   Clear
8:56 AM 5.2 °F -18.1 °F -7.2 °F 57% 30.30 in 9.0 mi West 27.6 mph 35.7 mph N/A Snow Light Snow
9:30 AM 6.8 °F -10.7 °F -7.6 °F 52% 29.96 in 12.0 mi West 15.0 mph - N/A   Clear
9:56 AM 7.3 °F -11.1 °F -6.9 °F 52% 30.30 in 12.0 mi West 17.3 mph - N/A   Clear
10:10 AM 8.6 °F -12.7 °F -5.8 °F 52% 29.97 in 12.0 mi West 25.3 mph 34.5 mph N/A Snow Light Snow Showers
10:56 AM 8.6 °F -12.3 °F -2.4 °F 61% 30.30 in 7.0 mi West 24.2 mph 35.7 mph N/A Snow Light Snow Showers
11:14 AM 10.4 °F -9.1 °F -2.2 °F 57% 29.93 in 12.0 mi West 21.9 mph 28.8 mph N/A   Clear
11:28 AM 10.4 °F -11.0 °F -0.4 °F 62% 29.92 in 12.0 mi West 27.6 mph 34.5 mph N/A Snow Light Snow Showers
11:29 AM 10.4 °F -11.7 °F -0.4 °F 62% 29.92 in 12.0 mi West 29.9 mph 34.5 mph N/A   Clear
11:30 AM 10.4 °F -11.7 °F -2.2 °F 57% 29.92 in 11.0 mi West 29.9 mph 35.7 mph N/A Snow Light Snow Showers
11:51 AM 10.4 °F -6.0 °F -4.0 °F 52% 29.92 in 12.0 mi West 15.0 mph - N/A   Clear
11:56 AM 11.7 °F -6.0 °F -3.3 °F 51% 30.25 in 12.0 mi West 18.4 mph 24.2 mph N/A   Clear
12:56 PM 13.8 °F -2.2 °F -3.8 °F 46% 30.25 in 12.0 mi WNW 16.1 mph 21.9 mph N/A   Clear
1:56 PM 14.9 °F 1.6 °F -3.3 °F 45% 30.26 in 12.0 mi West 11.5 mph 20.7 mph N/A   Clear
2:50 PM 14.0 °F -6.8 °F 1.4 °F 57% 29.88 in 6.0 mi WNW 29.9 mph 35.7 mph N/A Snow Blowing Snow
2:56 PM 13.8 °F -6.1 °F 1.0 °F 57% 30.24 in 6.0 mi WNW 26.5 mph 35.7 mph N/A Snow Blowing Snow
3:04 PM 14.0 °F -5.5 °F 1.4 °F 57% 29.89 in 5.0 mi WNW 25.3 mph 36.8 mph N/A   Haze
3:29 PM 14.0 °F -8.0 °F 3.2 °F 62% 29.90 in 1.2 mi WNW 34.5 mph 47.2 mph N/A Snow Blowing Snow
3:30 PM 14.0 °F -8.0 °F 3.2 °F 62% 29.90 in 1.2 mi WNW 34.5 mph 47.2 mph N/A Snow Blowing Snow
3:31 PM 14.0 °F -8.3 °F 3.2 °F 62% 29.90 in 1.2 mi WNW 35.7 mph 47.2 mph N/A Snow Blowing Snow
3:32 PM 14.0 °F -7.7 °F 3.2 °F 62% 29.90 in 1.2 mi WNW 33.4 mph 47.2 mph N/A Snow Blowing Snow
3:33 PM 14.0 °F -8.3 °F 3.2 °F 62% 29.90 in 1.2 mi WNW 35.7 mph 47.2 mph N/A Snow Blowing Snow
3:34 PM 14.0 °F -8.5 °F 3.2 °F 62% 29.90 in 1.2 mi WNW 36.8 mph 44.9 mph N/A Snow Blowing Snow
3:35 PM 14.0 °F -8.3 °F 3.2 °F 62% 29.90 in 1.2 mi WNW 35.7 mph 44.9 mph N/A   Mostly Cloudy
3:40 PM 14.0 °F -7.4 °F 1.4 °F 57% 29.91 in 2.5 mi WNW 32.2 mph 42.6 mph N/A   Haze
3:56 PM 13.8 °F -6.7 °F 1.8 °F 59% 30.24 in 3.0 mi West 28.8 mph 41.4 mph N/A Snow Blowing Snow
4:16 PM 14.0 °F -8.0 °F 3.2 °F 62% 29.90 in 1.4 mi West 34.5 mph 49.5 mph N/A Snow Light Snow Showers
4:21 PM 12.2 °F -11.8 °F 3.2 °F 67% 29.90 in 1.0 mi WNW 40.3 mph 49.5 mph N/A Snow Light Snow Showers
4:26 PM 12.2 °F -11.8 °F 3.2 °F 67% 29.92 in 1.1 mi WNW 40.3 mph 51.8 mph N/A Snow Blowing Snow
4:36 PM 12.2 °F -11.0 °F 3.2 °F 67% 29.92 in 0.9 mi WNW 36.8 mph 51.8 mph N/A Snow Blowing Snow
4:41 PM 12.2 °F -11.8 °F 3.2 °F 67% 29.93 in 1.1 mi WNW 40.3 mph 51.8 mph N/A Snow Light Snow Showers
4:56 PM 13.1 °F -10.1 °F 2.5 °F 63% 30.28 in 2.8 mi WNW 38.0 mph 48.3 mph N/A Snow Light Snow Showers
5:16 PM 12.2 °F -12.3 °F 3.2 °F 67% 29.95 in 1.8 mi WNW 42.6 mph 51.8 mph N/A Snow Light Snow Showers
5:26 PM 12.2 °F -11.3 °F 3.2 °F 67% 29.95 in 2.0 mi WNW 38.0 mph 50.6 mph N/A Snow Light Snow Showers
5:36 PM 12.2 °F -12.5 °F 3.2 °F 67% 29.97 in 1.8 mi WNW 43.7 mph 50.6 mph N/A Snow Light Snow Showers
5:46 PM 12.2 °F -11.3 °F 1.4 °F 62% 29.97 in 2.0 mi West 38.0 mph 49.5 mph N/A Snow Light Snow Showers
5:56 PM 12.0 °F -12.8 °F 3.0 °F 67% 30.31 in 1.9 mi WNW 43.7 mph 55.2 mph N/A Snow Light Snow
6:31 PM 12.2 °F -11.0 °F 3.2 °F 67% 29.98 in 2.0 mi WNW 36.8 mph 48.3 mph N/A Snow Light Snow
6:56 PM 12.6 °F -11.3 °F 2.7 °F 65% 30.35 in 2.8 mi WNW 40.3 mph 49.5 mph N/A Snow Light Snow
7:56 PM 14.4 °F -7.5 °F 2.3 °F 59% 30.30 in 4.0 mi WNW 34.5 mph 43.7 mph N/A Snow Light Snow Showers
8:56 PM 16.0 °F -5.0 °F 3.2 °F 57% 30.29 in 9.0 mi WNW 33.4 mph 42.6 mph N/A   Clear
9:56 PM 15.8 °F -4.1 °F 2.7 °F 56% 30.30 in 11.0 mi NW 28.8 mph 35.7 mph N/A   Clear
10:56 PM 15.3 °F -6.8 °F 5.5 °F 65% 30.26 in 3.0 mi WNW 36.8 mph 47.2 mph N/A Snow Light Snow
11:06 PM 15.8 °F -7.9 °F 6.8 °F 68% 29.99 in 1.5 mi WNW 46.0 mph 56.4 mph N/A Snow Light Snow
11:56 PM 15.3 °F -8.5 °F 7.9 °F 73% 30.22 in 1.2 mi West 44.9 mph 56.4 mph N/A Snow Light Snow